Location: Invercargill
(46.4000°S, 168.3500°E)
Time: 19:24:20
(UTC+12:00)

PSLV R/B - Pass Details

Date: 14 May 2021
Orbit: 567 x 597 km, 98.2° (Epoch: 15 June)

Event Time Altitude Azimuth Distance (km) Brightness Sun altitude
Rises 18:38:45 0° 17° (NNE) 2,813 7.4 -12.7°
Reaches altitude 10° 18:40:54 10° 17° (NNE) 1,916 6.5 -13.1°
Maximum altitude 18:45:03 85° 104° (ESE) 599 3.9 -13.8°
Drops below altitude 10° 18:49:14 10° 192° (SSW) 1,926 6.6 -14.5°
Sets 18:51:24 0° 193° (SSW) 2,829 7.5 -14.8°
